Regional Weather Roundup
Issued by NWS Charleston, WV

Home | Current Version | Previous Version | Text Only | Print | Product List | Glossary Off
Versions: 1 2 3 4 5 6 7 8 9 10 11 12 13 14 15 16 17 18 19 20 21 22 23 24 25 26 27 28 29 30 31 32 33 34 35 36 37 38 39 40 41 42 43 44 45 46 47 48

000
ASUS41 KRLX 022210
RWRRLX
West Virginia Regional Weather Roundup
National Weather Service Charleston WV
600 PM EDT WED SEP 02 2015

Note: "fair" indicates few or no clouds below 12,000 feet with no
significant weather and/or obstructions to visibility.

WVZ003-022300-
Northern Panhandle of West Virginia

CITY           SKY/WX    TMP DP  RH WIND       PRES   REMARKS
WHEELING       MOSUNNY   86  64  47 W6        30.00F
$$

WVZ009-022300-
Northwest West Virginia

CITY           SKY/WX    TMP DP  RH WIND       PRES   REMARKS
PARKERSBURG    SUNNY     84  70  62 VRB5      30.03F
$$

WVZ006-022300-
Western West Virginia

CITY           SKY/WX    TMP DP  RH WIND       PRES   REMARKS
HUNTINGTON     MOSUNNY   83  67  58 W6        30.03F
$$

WVZ015-022300-
West Central West Virginia

CITY           SKY/WX    TMP DP  RH WIND       PRES   REMARKS
CHARLESTON     MOSUNNY   83  65  54 NW10      30.02S
$$

WVZ022-031-022300-
North Central West Virginia

CITY           SKY/WX    TMP DP  RH WIND       PRES   REMARKS
CLARKSBURG     MOSUNNY   73  67  81 SW6       30.03F
MORGANTOWN     MOSUNNY   84  64  50 S6        30.03F
$$

WVZ025-035-042-045-022300-
Southern West Virginia

CITY           SKY/WX    TMP DP  RH WIND       PRES   REMARKS
BECKLEY        MOSUNNY   82  60  47 NW10      30.10F
LOGAN            N/A     82  64  54 CALM      30.06F
BLUEFIELD      SUNNY     83  58  42 W7        30.13F
LEWISBURG      MOSUNNY   82  60  47 N10       30.10S
$$

WVZ047-022300-
Northern Mountains of West Virginia

CITY           SKY/WX    TMP DP  RH WIND       PRES   REMARKS
ELKINS         MOSUNNY   72  59  63 SW6       30.10F
$$

WVZ052-022300-
Eastern Panhandle of West Virginia

CITY           SKY/WX    TMP DP  RH WIND       PRES   REMARKS
MARTINSBURG    PTSUNNY   85  64  49 VRB6      29.99R
PETERSBURG     PTSUNNY   76  68  75 CALM      30.03F
$$



USA.gov is the U.S. government's official web portal to all federal, state and local government web resources and services.